Tracking 18856 objects as of 11-Dec-2017
HD Live streaming from Space Station
objects crossing your sky now

SL-16 R/B

Track SL-16 R/B now!
10-day predictions
SL-16 R/B is classified as:


NORAD ID: 22285
Int'l Code: 1992-093B
Perigee: 845.0 km
Apogee: 853.8 km
Inclination: 71.0 °
Period: 101.8 minutes
Semi major axis: 7220 km
RCS: 8.7386 m2 (large)
Launch date: December 25, 1992
Source: Commonwealth of Independent States (former USSR) (CIS)
Launch site: TYURATAM MISSILE AND SPACE COMPLEX (TTMTR)

Note: This is a ROCKET BODY
aabbcc
Your satellite tracking list
Your tracking list is empty




NASA's NSSDC Master Catalog

Two Line Element Set (TLE):
1 22285U 92093B   17344.89388669 -.00000287 +00000-0 -12337-3 0  9996
2 22285 071.0205 201.5937 0006097 237.1212 122.9324 14.15017982287258
Source of the keplerian elements: AFSPC